Weather in Pidhorodne

Ukraine / Dnipropetrovsk Region     48°34′29″N   35°06′08″E
temp.,
°C
wind,
m/s
gust,
m/s
humid.,
%
clouds,
%
prec.,
mm/h
press.,
hPa
HPBL,
m
24 may, tue
tue2400:00+12nne256192 0.0 1010183
03:00+9n23705 0.0 101181
06:00+9n126468 0.0 101282
09:00+15n124234 0.0 1012667
12:00+17nw4536100 0.0 10122454
15:00+18nw353877 0.0 10122031
18:00+17wnw444389 0.0 10131940
21:00+13nw23595 0.0 1014215
25 may, wed
wed2500:00+11w236115 0.0 101650
03:00+10wnw24665 0.0 101686
06:00+10wnw24685 0.0 1017132
09:00+15nnw34480 0.0 1018645
12:00+19nw44383 0.0 10181996
15:00+21nw343385 0.0 10182641
18:00+18ne234677 0.0 1018408
21:00+17sse114698 0.0 101921
26 may, thu
thu2600:00+16s124871 0.0 101938
03:00+13ssw365727 0.0 1019125
06:00+13ssw37678 0.0 1018172
09:00+19ssw6946100 0.0 1017809
12:00+19sw91247100 0.0 10161720
15:00+13ssw61487100 4.6 10161034
18:00+15sw6107611 0.1 1015608
21:00+14sw35912 0.1 101683
27 may, fri
fri2700:00+13wsw36885 0.0 1016126
03:00+12wsw388693 0.0 1016153
06:00+12wsw41182100 0.0 1016282
09:00+19w695512 0.0 1015921
12:00+22wnw7104340 0.0 10152202
15:00+21wnw5951100 0.0 10151350
18:00+22wnw494942 0.0 10141738
21:00+19sw3560100 0.0 1014199
28 may, sat
sat2800:00+18ssw496499 0.0 1013274
03:00+17sw6146865 0.0 1011553
06:00+16sw7166829 0.0 1010597
09:00+19wsw7106482 0.1 10111001
12:00+19w467499 0.5 1011872
15:00+20nw456352 0.9 10111136
18:00+18nw5653100 0.1 1012676
21:00+16nw235884 0.1 1013256